Regional Weather Roundup
Issued by NWS

Home | Current Version | Previous Version | Graphics & Text | Print | Product List | Glossary On
Versions: 1 2 3 4 5 6 7 8 9 10 11 12 13 14 15 16 17 18 19 20 21 22 23 24 25 26 27 28 29 30 31 32 33 34 35 36 37 38 39 40 41 42 43 44 45 46 47 48 49 50
000
ASUS43 KLOT 272108
RWRIL

ILLINOIS REGIONAL WEATHER ROUNDUP
NATIONAL WEATHER SERVICE CHICAGO/ROMEOVILLE IL
400 PM CDT THU AUG 27 2015

NOTE: "FAIR" INDICATES FEW OR NO CLOUDS BELOW 12,000 FEET WITH NO
SIGNIFICANT WEATHER AND/OR OBSTRUCTIONS TO VISIBILITY.

* THESE STATIONS ARE NOT UNDER NWS QUALITY CONTROL. THEY ALSO MAY NOT
  REPORT WEATHER SUCH AS PRECIPITATION OR FOG.

ILZ001-002-007-009-015-016-024-272200-
NORTHWEST ILLINOIS

CITY           SKY/WX    TMP DP  RH WIND       PRES   REMARKS
MOLINE         FAIR      74  58  57 S8        30.10F
STERLING*      FAIR      75  57  53 CALM      30.10F
SAVANNA*       PTSUNNY   76  56  48 SW6       30.11F
$$

ILZ003-004-008-010-011-017-018-272200-
NORTH CENTRAL ILLINOIS

CITY           SKY/WX    TMP DP  RH WIND       PRES   REMARKS
ROCKFORD       PTSUNNY   71  55  56 S6        30.14F
FREEPORT*      FAIR      71  57  61 S3        30.14F
ROCHELLE*      FAIR      71  57  60 S3        30.14F
DE KALB*       FAIR      69  57  65 S6        30.16S
PERU*          FAIR      73  54  50 S3        30.14F
$$

ILZ005-006-012>014-019>023-272200-
NORTHEAST ILLINOIS

CITY           SKY/WX    TMP DP  RH WIND       PRES   REMARKS
CHICAGO-OHARE  FAIR      74  52  46 E3        30.13F
CHICAGO-MIDWAY FAIR      74  55  51 E9        30.14F
AURORA         PTSUNNY   73  56  54 S5        30.14F
LANSING*       CLOUDY    72  55  55 SE3       30.16S
JOLIET*        FAIR      73  56  55 CALM      30.14F
WAUKEGAN       FAIR      70  54  56 SE8       30.14F
DUPAGE AIRPORT FAIR      73  53  49 CALM      30.13F
KANKAKEE*      FAIR      73  57  58 CALM      30.14F
WHEELING       FAIR      72  53  51 NE9       30.15F
MORRIS*        FAIR      71  56  59 SE3       30.13F
ROMEOVILLE*    FAIR      73  55  53 SE5       30.14F
NORTHERLY ISL    N/A     67  55  65 E6          N/A
$$

LMZ740>746-272200-
SOUTHERN LAKE MICHIGAN

STATION/POSITION SKY/WX   TEMP    WIND        PRES    VSBY  WAVE
                          AIR SEA DIR/SP/G                  HT/PER
                          (F)     (DEG/KT/KT) (MB)    (MI)  (FT/S)
SOUTHERN BUOY              66 68  200/  6/  8 1021.3F
WILMETTE HARBOR            64 55  260/  6/  6   N/A           1
HARRISON CRIB              65      90/  6/  7   N/A
BURNHAM HARBOR             68      90/  6/  7   N/A
CALUMET HARBOR                     50/  6/  8   N/A
BURNS HARBOR               67      40/  5/  6 1021.7F
MICHIGAN CITY              67     340/  3/  4   N/A
MICHIGAN CITY 6N           67 72  340/  2/  4   N/A           1
ST. JOSEPH                 67 71  350/  4/  6   N/A           1
$$

ILZ025>027-034>036-040-047-049-050-058-095>099-272200-
WEST-CENTRAL ILLINOIS

CITY           SKY/WX    TMP DP  RH WIND       PRES   REMARKS
QUINCY         FAIR      75  56  51 E5        30.11F
GALESBURG*     FAIR      73  58  61 S3        30.11
MACOMB*        FAIR      74  57  56 CALM      30.13F
JACKSONVILLE*  FAIR      76  58  53 NE3       30.13F
PITTSFIELD*    FAIR      75  58  55 NE5       30.13F
$$

ILZ028>032-037-038-041>044-048-051>054-059>061-272200-
CENTRAL ILLINOIS

CITY           SKY/WX    TMP DP  RH WIND       PRES   REMARKS
PONTIAC        FAIR      75  59  58 CALM      30.15S
BLOOMINGTON    FAIR      77  59  53 SE5       30.15F
DECATUR        FAIR      78  57  48 CALM      30.11F
PEORIA         FAIR      76  56  49 VRB3      30.13F
LACON*         FAIR      74  58  57 CALM      30.12F
LINCOLN*       FAIR      77  55  45 NW3       30.13S
SPRINGFIELD    FAIR      79  59  50 N6        30.14S HX  80
TAYLORVILLE    FAIR      75  57  53 CALM      30.13R
$$

ILZ033-039-045-046-055>057-062-063-272200-
EAST-CENTRAL ILLINOIS

CITY           SKY/WX    TMP DP  RH WIND       PRES   REMARKS
CHAMPAIGN      FAIR      78  59  51 VRB3      30.13F
RANTOUL*       FAIR      77  59  53 E3        30.13F
MATTOON        FAIR      79  54  41 VRB5      30.11F
PARIS*         FAIR      79  59  50 CALM      30.12F HX  80
$$

ILZ079-100>102-272200-
SOUTHWEST ILLINOIS

CITY           SKY/WX    TMP DP  RH WIND       PRES   REMARKS
ALTON          PTSUNNY   77  59  53 VRB6      30.12F
BELLEVILLE     FAIR      78  60  53 VRB2      30.11S HX  80
CAHOKIA*       FAIR      80  54  40 VRB3      30.12S HX  80
SPARTA*        FAIR      76  58  53 CALM      30.14R
$$

ILZ064>066-069>071-074>076-080>082-084>086-088>090-092>094-272200-
SOUTH-CENTRAL ILLINOIS

CITY           SKY/WX    TMP DP  RH WIND       PRES   REMARKS
CARBONDALE     FAIR      79  55  43 CALM      30.10F
CAIRO*         FAIR      76  64  64 NE5       30.10S
EFFINGHAM*     PTSUNNY   78  54  43 E3        30.12F
MARION         PTSUNNY   79  57  47 NE6       30.11F HX  80
MT. VERNON     FAIR      81  57  44 CALM      30.12F HX  81
CENTRALIA*     FAIR      75  57  52 CALM      30.11
SALEM*         FAIR      78  57  48 W6        30.11F
METROPOLIS*    FAIR      80  63  55 NE5       30.10F HX  81
$$

ILZ067-068-072-073-078-083-087-091-272200-
SOUTHEAST ILLINOIS

CITY           SKY/WX    TMP DP  RH WIND       PRES   REMARKS
LAWRENCEVILLE  PTSUNNY   81  57  43 CALM      30.11F HX  81
FLORA*         FAIR      79  56  43 S3        30.11F HX  80
FAIRFIELD*     FAIR      79  58  48 CALM      30.10F HX  80
HARRISBURG*    PTSUNNY   80  59  48 E6        30.10F HX  81
ROBINSON*      FAIR      81  58  46 W5        30.13S HX  81
CARMI*         FAIR      80  59  48 CALM      30.10F HX  81
$$

ABBREVIATIONS USED IN REMARKS
   TC - TEMPERATURE IN CELSIUS
  WCI - WIND CHILL INDEX
   HX - HEAT INDEX
  VSB - VISIBILITY
$$




USA.gov is the U.S. government's official web portal to all federal, state and local government web resources and services.